Starlink 11616

operational
NORAD ID: 63137 Int'l Des: 2025-043 Owner: SPXS Country: US Constellation: starlink
LEOCIRCULAR

About Starlink 11616

Description loading...

Live Position

Loading 3D Globe...

Upcoming Passes

Altitude History

Altitude vs Time

uPlot chart will show altitude changes over time

Two-Line Element Set

1 63137U 25043F 25304.03004307 .00327927 00000-0 24364-2 0 9996
2 63137 42.9976 311.9369 0001911 176.1788 183.9094 15.71066223 39088
Epoch: Oct 31, 2025 • Age: 19 hours

Current Status

Altitude 363.0 km
Velocity 7.69 km/s
Sub-Earth Point -33.52°S, 168.6°W
Launch Date Mar 3, 2025
Age 0.6 years
Type internet

Technical Details

Classification Payload
Mass 960.00 kg
Dry Mass 910.00 kg
Total Mass 960.00 kg
Length 0.30 m
Diameter 4.10 m
Span 29.00 m
Shape Box + pan
Manufacturer SPXS
Bus Type Starlink V2MD
Phase Status In Orbit
Owner/State SPXS/US

Large Constellations

Loading constellations...